Location: Grantsboro
(35.1404°N, 76.8424°W)
Time: 09:15:16
(UTC+00:00)

Cosmos 2227 Rocket - Pass Details

Date: 18 January 2020
Orbit: 840 x 844 km, 71.0° (Epoch: 27 February)

Event Time Altitude Azimuth Distance (km) Brightness Sun altitude
Rises 00:36:54 0° 214° (SW) 3,383 5.9 -27.6°
Reaches altitude 10° 00:39:24 10° 219° (SW) 2,451 5.1 -28.1°
Maximum altitude 00:44:51 51° 295° (WNW) 1,055 2.9 -29.2°
Enters shadow 00:46:40 37° 345° (NNW) 1,290 3.1 -29.6°
